World > North America > United States > Ohio

South Madison, Ohio Regional Weather

Lat: 41.73N, Lon: 81.05W
Wx Zone: OHZ012Web Search

Ads allow us to feed your daily addiction for the world's greatest weather information. We're determined to offer quality sponsors, in the least annoying way possible.

Feedback


°F Click to change South Madison hourly weather to Imperial units.Click to change South Madison hourly weather to Metric units. °C
South Madison Weather Map
UTC Time: 5/8/2021, 00:22
Your Time:

South Madison, OH Regional Weather

Expires:202105080100;;759808
ASUS41 KCLE 080012
RWRCLE
OHIO REGIONAL WEATHER ROUNDUP
NATIONAL WEATHER SERVICE WILMINGTON, OH
800 PM EDT FRI MAY 07 2021

NOTE: "FAIR" INDICATES FEW OR NO CLOUDS BELOW 12,000 FEET WITH NO
SIGNIFICANT WEATHER AND/OR OBSTRUCTIONS TO VISIBILITY.


OHZ009>014-019>023-028>033-038-089-080100-
   NORTHEAST OHIO
  
CITY           SKY/WX    TMP DP  RH WIND       PRES   REMARKS
CLE-HOPKINS    FAIR      46  41  82 SE8       29.90F                  
CLE-LAKEFRONT  CLOUDY    48  39  71 SE6       29.91F                  
CUY CO. ARPT   LGT RAIN  46  36  66 W8        29.92S                  
LORAIN-ELYRIA  MOCLDY    46  42  86 SE3       29.92F                  
ASHTABULA      FAIR      47  36  65 CALM      29.93S                  
AKRON-CANTON   LGT RAIN  46  41  82 NW12      29.92R                  
WOOSTER        CLOUDY    47  41  80 CALM      29.91F                  
MANSFIELD      FAIR      48  41  76 S6        29.89F                  
YOUNGSTOWN     FAIR      49  33  54 N3        29.91S                  
$$
 

SKY/WX - Weather  TMP - Temperature  DP - Dew Point  RH - Relative Humidity
WIND - Wind Direction/Speed PRES - Barometric Pressure VSB - Visibility
WCI - Wind Chill Index E13G22 Wind - East Wind 13 mph/Gusts of 22 mph